Search for airport 
image banner adimage banner ad
image banner ad

DAOI - Chlef

Located in Chlef, Algeria

ICAO - DAOI, IATA - CFK

Data provided by Airmate  

General information

Coordinates: N36°13'1" E1°20'24"
Elevation is 501 feet MSL.
 
View others Airports in Chlef Province

Operational data

Open for public use
Current time UTC:
Current local time:
Weather
METAR: DAOI 010000Z 00000KT CAVOK 15/03 Q1024
TAF: TAF DAOI 312300Z 0100/0124 VRB02KT CAVOK BECMG 0110/0112 36005KT BECMG 0113/0116 VRB02KT
View NOTAMs / SUP AIP / TFR affecting this airport [VIEW]
Communications frequencies: [VIEW]

Runways:

RWY identifierQFULength (ft)Width (ft)SurfaceLDA (ft)
0877°9186148
26257°9186148
0769°541398ASP
25249°541398

Airport contact information

Address: Chlef Algeria

Satellite view of DAOI